FW3754 Weather Reports


time (UTC)temp
F
wind
direction
speed
knots
gust
knots
rain 1hr
in
rain 24hr
in
rain mn
in
humidity
%
barometer
mb
20220124100044 48 348 5.2 0.0 0.00 0.00 0.00 85 1015.2
20220124094538 49 335 6.1 0.0 0.00 0.00 0.00 86 1015.5
20220124093112 49 316 7.0 0.0 0.00 0.00 0.00 85 1015.6
20220124091609 49 338 6.1 0.0 0.00 0.00 0.00 87 1015.8
20220124090028 48 336 6.1 0.0 0.00 0.00 0.00 88 1015.8
20220124084616 48 312 7.8 0.0 0.00 0.00 0.00 88 1015.5
20220124083102 48 300 7.8 0.0 0.00 0.00 0.00 87 1015.4
20220124081526 48 320 7.0 0.0 0.00 0.00 0.00 87 1015.4
20220124080030 48 312 7.0 0.0 0.00 0.00 0.00 86 1015.7
20220124074537 49 309 6.1 0.0 0.00 0.00 0.00 86 1015.7
20220124073024 49 302 8.7 0.0 0.00 0.00 0.00 86 1015.7
20220124071519 49 325 7.0 0.0 0.00 0.00 0.00 87 1015.8
20220124070012 50 298 4.3 0.0 0.00 0.00 0.00 86 1015.7
20220124064533 50 300 5.2 0.0 0.00 0.00 0.00 85 1015.9
20220124063028 50 315 5.2 0.0 0.00 0.00 0.00 85 1015.8
20220124061509 50 298 4.3 0.0 0.00 0.00 0.00 84 1015.9
20220124060041 50 318 6.1 0.0 0.00 0.00 0.00 84 1016.3
20220124054507 50 315 6.1 0.0 0.00 0.00 0.00 84 1016.4
20220124053003 50 307 5.2 0.0 0.00 0.00 0.00 83 1016.5
20220124051501 50 308 5.2 0.0 0.00 0.00 0.00 84 1016.4
20220124050119 50 321 6.1 0.0 0.00 0.00 0.00 83 1016.6
20220124044655 50 315 6.1 0.0 0.00 0.00 0.00 84 1016.6
20220124043129 50 313 5.2 0.0 0.00 0.00 0.00 85 1016.7
20220124041616 50 313 6.1 0.0 0.00 0.00 0.00 83 1016.7
20220124040133 50 327 7.0 0.0 0.00 0.00 0.00 83 1017.0
20220124034557 51 329 5.2 0.0 0.00 0.00 0.00 85 1017.3
20220124033139 51 297 6.1 0.0 0.00 0.00 0.00 85 1017.3
20220124031621 51 324 7.0 0.0 0.00 0.00 0.00 84 1017.3
20220124030117 52 313 7.0 0.0 0.00 0.00 0.00 85 1017.2
20220124024610 52 317 7.8 0.0 0.00 0.00 0.00 83 1017.1
20220124023118 53 311 10.4 0.0 0.00 0.00 0.00 83 1016.9
20220124021551 53 321 9.6 0.0 0.00 0.00 0.00 84 1016.7
20220124020054 54 360 6.1 0.0 0.00 0.00 0.00 87 1016.5
20220124014554 54 326 7.0 0.0 0.00 0.00 0.00 86 1016.4
20220124013104 54 317 7.0 0.0 0.00 0.00 0.00 86 1016.4
20220124011550 54 333 7.8 0.0 0.00 0.00 0.00 85 1016.2
20220124010045 54 310 8.7 0.0 0.00 0.00 0.00 86 1016.1
20220124004545 55 321 7.8 0.0 0.00 0.00 0.00 86 1016.1
20220124003139 55 322 6.1 0.0 0.00 0.00 0.00 88 1016.0
20220124001523 55 304 5.2 0.0 0.00 0.00 0.00 88 1015.8
20220124000112 56 321 6.1 0.0 0.00 0.00 0.00 88 1015.7
20220123234520 56 318 6.1 0.0 0.00 0.00 0.00 88 1015.7
20220123233044 56 317 8.7 0.0 0.00 0.00 0.00 88 1015.8
20220123231526 57 274 7.8 0.0 0.00 0.00 0.00 88 1015.8
20220123230016 57 292 7.8 0.0 0.00 0.00 0.00 88 1015.6
20220123224512 57 320 7.8 0.0 0.00 0.00 0.00 88 1015.5
20220123223009 58 322 7.8 0.0 0.00 0.00 0.00 88 1015.5
20220123221512 58 331 7.0 0.0 0.00 0.00 0.00 87 1015.4
20220123220007 58 322 6.1 0.0 0.00 0.00 0.00 87 1015.2
20220123214506 58 315 5.2 0.0 0.00 0.00 0.00 87 1015.1
20220123213006 59 315 5.2 0.0 0.00 0.00 0.00 87 1015.1
20220123211504 58 321 7.8 0.0 0.00 0.00 0.00 86 1015.2
20220123210003 59 309 7.8 0.0 0.00 0.00 0.00 86 1015.3
20220123204503 59 329 7.0 0.0 0.00 0.00 0.00 87 1015.3
20220123203002 59 313 7.8 0.0 0.00 0.00 0.00 87 1015.2
20220123201502 59 323 6.1 0.0 0.00 0.00 0.00 87 1015.3
20220123200149 59 321 7.8 0.0 0.00 0.00 0.00 87 1015.4
20220123194622 59 321 8.7 0.0 0.00 0.00 0.00 87 1015.6
20220123193108 59 321 9.6 0.0 0.00 0.00 0.00 88 1015.6
20220123191646 59 336 8.7 0.0 0.00 0.00 0.00 88 1015.9
20220123190117 60 345 8.7 0.0 0.00 0.00 0.00 88 1015.9
20220123184608 60 310 8.7 0.0 0.00 0.00 0.00 88 1016.0
20220123183124 60 317 9.6 0.0 0.00 0.00 0.00 87 1016.3
20220123181609 60 300 8.7 0.0 0.00 0.00 0.00 87 1016.4
20220123180131 60 344 9.6 0.0 0.00 0.00 0.00 87 1016.8
20220123174558 62 309 8.7 0.0 0.00 0.00 0.00 86 1016.9
20220123173145 62 314 7.8 0.0 0.00 0.00 0.00 86 1017.1
20220123171606 62 276 8.7 0.0 0.00 0.00 0.00 85 1017.3
20220123170152 61 317 6.1 0.0 0.00 0.00 0.00 88 1017.3
20220123164618 60 331 7.0 0.0 0.00 0.00 0.00 88 1017.7
20220123163136 59 305 7.8 0.0 0.00 0.00 0.00 88 1018.3
20220123161601 60 318 7.0 0.0 0.00 0.00 0.00 88 1018.0
20220123160056 59 295 6.1 0.0 0.00 0.00 0.00 89 1018.3
20220123154617 59 306 7.0 0.0 0.00 0.00 0.00 89 1018.5
20220123153410 59 311 7.0 0.0 0.00 0.00 0.00 89 1018.4
20220123151547 58 326 8.7 0.0 0.00 0.00 0.00 89 1018.7
20220123150114 58 312 7.0 0.0 0.00 0.00 0.00 89 1018.8
20220123144552 58 323 7.0 0.0 0.00 0.00 0.00 89 1018.7
20220123143101 58 342 7.0 0.0 0.00 0.00 0.00 89 1018.2
20220123141618 58 315 7.0 0.0 0.00 0.00 0.00 89 1017.9
20220123140207 58 327 7.0 0.0 0.00 0.00 0.00 90 1017.8
20220123134550 58 319 7.0 0.0 0.00 0.00 0.00 90 1017.9
20220123133045 58 329 6.1 0.0 0.00 0.00 0.00 89 1017.9
20220123131635 58 318 7.0 0.0 0.00 0.00 0.00 89 1018.1
20220123130104 59 304 7.8 0.0 0.00 0.00 0.00 89 1018.1
20220123124625 59 331 7.0 0.0 0.00 0.00 0.00 89 1017.8
20220123121626 59 5 6.1 0.0 0.00 0.00 0.00 89 1017.4
20220123120034 59 314 5.2 0.0 0.00 0.00 0.00 89 1017.4
20220123114624 59 348 6.1 0.0 0.00 0.00 0.00 89 1017.3
20220123113054 59 317 7.8 0.0 0.00 0.00 0.00 89 1017.3
20220123111557 59 332 7.0 0.0 0.00 0.00 0.00 89 1017.1
20220123110056 59 348 7.8 0.0 0.00 0.00 0.00 89 1016.8
20220123104608 59 344 8.7 0.0 0.00 0.00 0.00 89 1016.7
20220123103039 59 323 7.8 0.0 0.00 0.00 0.00 89 1016.7
20220123101529 59 348 7.0 0.0 0.00 0.00 0.00 89 1016.6